World > North America > United States > Mississippi

Thyatira, Mississippi Regional Weather

Lat: 34.63N, Lon: 89.76W
Wx Zone: MSZ008Web Search

Helpful Tip: Abbreviated, 7 Day, 14 Day Forecasts. There is a weather forecast for every taste.

Feedback


°F Click to change Thyatira hourly weather to Imperial units.Click to change Thyatira hourly weather to Metric units. °C
Thyatira Weather Map
UTC Time: 4/11/2021, 16:02
Your Time:

Thyatira, MS Regional Weather

Expires:202104111600;;389060
ASUS44 KJAN 111510
RWRMS 

MISSISSIPPI HOURLY WEATHER ROUNDUP
NATIONAL WEATHER SERVICE JACKSON MS
1000 AM CDT SUN APR 11 2021

NOTE: "FAIR: INDICATES FEW OR NO CLOUDS BELOW 12,000 FEET WITH NO
SIGNIFICANT WEATHER AND/OR OBSTRUCTIONS TO VISIBILITY.


MSZ001>002-007>008-010>013-018>021-025>028-034>036-111600-
NORTHWEST MISSISSIPPI
  
CITY           SKY/WX    TMP DP  RH WIND       PRES   REMARKS
BATESVILLE     FAIR      63  46  55 W10G16    29.76S                  
CLARKSDALE       N/A     63  48  59 W13       29.76F                  
CLEVELAND      FAIR      63  48  58 W9        29.78S                  
GREENWOOD      SUNNY     64  49  57 SW6       29.78F                  
GREENVILLE     SUNNY     65  50  58 W8        29.77F                  
OLIVE BRANCH   SUNNY     63  48  59 W13       29.74R                  
OXFORD         SUNNY     63  43  48 W12       29.77S                  
TUNICA         SUNNY     61  46  59 W12       29.77S                  
$$


SKY/WX - Weather  TMP - Temperature  DP - Dew Point  RH - Relative Humidity
WIND - Wind Direction/Speed PRES - Barometric Pressure VSB - Visibility
WCI - Wind Chill Index E13G22 Wind - East Wind 13 mph/Gusts of 22 mph